STARLINK-32908, 63084

Orbit data source: Space-Track

STARLINK-32908, 63084 is a payload satellite owned by SpaceX/Seattle (US) in LEO that was launched on Sun, 23 Feb 2025 UTC via an FALCON 9 launch vehicle from the Air Force Western Test Range (AFWTR). Payload-class satellites include a variety of spacecraft equipped with specific instruments for various scientific and technological missions. These include communications satellites like Starlink; space stations such as the ISS; scientific satellites like the Hubble; Earth observation satellites from companies like Planet Labs, Umbra, and HawkEye 360; GPS; miniature CubeSats for education and research; and military/defense satellites.

Loading next visibility...
Identifier
63084, 2025-037H
Orbit
LEO
Country
Flag of USUS
Related business
Manufacturer
SpaceX/Seattle
Mission
Operational Commercial Communications
Bus & Motor
STARLINK V2M, Unknown motor
Mass
730 kg wet, ~700 kg dry
Launch date (UTC)
2025-02-23 (1 year ago)
Launch vehicle
FALCON 9
Launch site
Air Force Western Test Range (AFWTR)
Object type
Payload
Rocket body
Debris
Shape & HBR
Box + 2 Pan, 17.7 m
Radar Cross Section
33.884 m², Large (>1 m²)

Expand to show TLE details & history
Last TLE update: 16 hours ago

TLE from 16 hours ago
0 STARLINK-32908
1 63084U 25037H   26171.17452253  .00005954  00000-0  50618-3 0  9990
2 63084  70.0010  96.0376 0002863 266.7229  93.3603 14.98346579 73814
Epoch: 2026-06-20T04:11Z
TLE epoch observation values (Epoch: 2026-06-20T04:11:18.746Z)
Latitude
0.00001°
Longitude
124.81657°
Altitude
574.546 km
Speed
7.574 km/s
True Right ascension
06h 24m 09s
True Declination
0° 00' 00"
Sunlit
Object was in daylight at epoch
Visualization orbit readout
Latitude
Unknown
Longitude
Unknown
Altitude
Unknown
Speed
Unknown
Apparent Right ascension
Unknown
Apparent Declination
Unknown
Sunlit
N/A
Visualization observer readout
Local Sidereal Time
07:16:45
Azimuth
Unknown
Elevation
Unknown
Doppler factor
Unknown
Orbital elements
Apogee altitude
571.942 km
Perigee altitude
567.963 km
Semi-major axis
6,948.09 km
Eccentricity
0.00029
Inclination
70.001°
RAAN
96.0376°
Arg. of periapsis
266.7229°
True anomaly
93.39305°
Mean anomaly
93.3603°
Eccentric anomaly
93.37668°
Mean motion
3.74753 °/min
Orbital period
96.06 mins
BSTAR
0.00050618
Loading maneuver chart data...
Computing Atmospheric mass density...
Loading historical data...
Loading historical data...
Loading historical data...
Loading historical data...
Loading historical data...
Loading historical data...
Loading historical data...

Documentation

Showing up to 5 results
|